Location: ???????
(55.3754°N, 39.3545°E)
Time: 06:58:00
(UTC+00:00)

SJ 16-02 - Pass Details

Date: 14 April 2026
Orbit: 582 x 592 km, 75.0° (Epoch: 12 May)

Event Time Altitude Azimuth Distance (km) Brightness Sun altitude
Rises 18:58:51 0° 338° (NNW) 2,835 6.2 -18.4°
Reaches altitude 10° 19:01:49 10° 360° (N) 1,928 4.6 -18.7°
Maximum altitude 19:04:35 17° 40° (NE) 1,543 3.5 -18.9°
Enters shadow 19:06:48 12° 74° (ENE) 1,791 3.5 -19.1°
